#datetime,building,power
2024-02-13T00:00:00,mfh,30.38
2024-02-13T00:01:00,mfh,29.93
2024-02-13T00:02:00,mfh,30.83
2024-02-13T00:03:00,mfh,30.65
2024-02-13T00:04:00,mfh,30.79
2024-02-13T00:05:00,mfh,30.66
2024-02-13T00:06:00,mfh,30.67
2024-02-13T00:07:00,mfh,30.78
2024-02-13T00:08:00,mfh,30.64
2024-02-13T00:09:00,mfh,29.86
2024-02-13T00:10:00,mfh,29.80
2024-02-13T00:11:00,mfh,29.84
2024-02-13T00:12:00,mfh,30.51
2024-02-13T00:13:00,mfh,30.42
2024-02-13T00:14:00,mfh,30.63
2024-02-13T00:15:00,mfh,30.56
2024-02-13T00:16:00,mfh,30.32
2024-02-13T00:17:00,mfh,30.59
2024-02-13T00:18:00,mfh,30.46
2024-02-13T00:19:00,mfh,29.94
2024-02-13T00:20:00,mfh,29.88
2024-02-13T00:21:00,mfh,30.05
2024-02-13T00:22:00,mfh,30.72
2024-02-13T00:23:00,mfh,30.74
2024-02-13T00:24:00,mfh,31.09
2024-02-13T00:25:00,mfh,30.94
2024-02-13T00:26:00,mfh,24.78
2024-02-13T00:27:00,mfh,24.64
2024-02-13T00:28:00,mfh,24.49
2024-02-13T00:29:00,mfh,24.38
2024-02-13T00:30:00,mfh,25.22
2024-02-13T00:31:00,mfh,24.63
2024-02-13T00:32:00,mfh,24.53
2024-02-13T00:33:00,mfh,24.49
2024-02-13T00:34:00,mfh,24.58
2024-02-13T00:35:00,mfh,24.63
2024-02-13T00:36:00,mfh,24.78
2024-02-13T00:37:00,mfh,24.75
2024-02-13T00:38:00,mfh,24.60
2024-02-13T00:39:00,mfh,23.93
2024-02-13T00:40:00,mfh,24.29
2024-02-13T00:41:00,mfh,24.16
2024-02-13T00:42:00,mfh,26.99
2024-02-13T00:43:00,mfh,27.64
2024-02-13T00:44:00,mfh,26.90
2024-02-13T00:45:00,mfh,27.05
2024-02-13T00:46:00,mfh,27.02
2024-02-13T00:47:00,mfh,26.95
2024-02-13T00:48:00,mfh,27.16
2024-02-13T00:49:00,mfh,26.34
2024-02-13T00:50:00,mfh,26.35
2024-02-13T00:51:00,mfh,26.66
2024-02-13T00:52:00,mfh,26.59
2024-02-13T00:53:00,mfh,26.89
2024-02-13T00:54:00,mfh,26.74
2024-02-13T00:55:00,mfh,28.05
2024-02-13T00:56:00,mfh,27.96
2024-02-13T00:57:00,mfh,28.14
2024-02-13T00:58:00,mfh,28.09
2024-02-13T00:59:00,mfh,27.63
2024-02-13T01:00:00,mfh,25.92
2024-02-13T01:01:00,mfh,25.86
2024-02-13T01:02:00,mfh,25.81
2024-02-13T01:03:00,mfh,26.49
2024-02-13T01:04:00,mfh,26.39
2024-02-13T01:05:00,mfh,26.40
2024-02-13T01:06:00,mfh,26.43
2024-02-13T01:07:00,mfh,26.78
2024-02-13T01:08:00,mfh,26.37
2024-02-13T01:09:00,mfh,26.20
2024-02-13T01:10:00,mfh,26.52
2024-02-13T01:11:00,mfh,26.01
2024-02-13T01:12:00,mfh,26.62
2024-02-13T01:13:00,mfh,26.67
2024-02-13T01:14:00,mfh,26.59
2024-02-13T01:15:00,mfh,26.56
2024-02-13T01:16:00,mfh,26.52
2024-02-13T01:17:00,mfh,26.44
2024-02-13T01:18:00,mfh,25.84
2024-02-13T01:19:00,mfh,25.84
2024-02-13T01:20:00,mfh,25.89
2024-02-13T01:21:00,mfh,27.29
2024-02-13T01:22:00,mfh,27.75
2024-02-13T01:23:00,mfh,26.34
2024-02-13T01:24:00,mfh,27.00
2024-02-13T01:25:00,mfh,26.94
2024-02-13T01:26:00,mfh,27.60
2024-02-13T01:27:00,mfh,27.74
2024-02-13T01:28:00,mfh,27.55
2024-02-13T01:29:00,mfh,27.54
2024-02-13T01:30:00,mfh,24.85
2024-02-13T01:31:00,mfh,24.82
2024-02-13T01:32:00,mfh,24.86
2024-02-13T01:33:00,mfh,24.34
2024-02-13T01:34:00,mfh,24.55
2024-02-13T01:35:00,mfh,24.42
2024-02-13T01:36:00,mfh,25.04
2024-02-13T01:37:00,mfh,26.14
2024-02-13T01:38:00,mfh,25.59
2024-02-13T01:39:00,mfh,25.74
2024-02-13T01:40:00,mfh,25.17
2024-02-13T01:41:00,mfh,24.66
2024-02-13T01:42:00,mfh,24.51
2024-02-13T01:43:00,mfh,23.81
2024-02-13T01:44:00,mfh,24.05
2024-02-13T01:45:00,mfh,23.98
2024-02-13T01:46:00,mfh,24.46
2024-02-13T01:47:00,mfh,24.15
2024-02-13T01:48:00,mfh,24.32
2024-02-13T01:49:00,mfh,24.29
2024-02-13T01:50:00,mfh,24.32
2024-02-13T01:51:00,mfh,24.31
2024-02-13T01:52:00,mfh,23.63
2024-02-13T01:53:00,mfh,23.54
2024-02-13T01:54:00,mfh,23.69
2024-02-13T01:55:00,mfh,24.62
2024-02-13T01:56:00,mfh,25.04
2024-02-13T01:57:00,mfh,24.27
2024-02-13T01:58:00,mfh,24.34
2024-02-13T01:59:00,mfh,25.03
2024-02-13T02:00:00,mfh,24.49
2024-02-13T02:01:00,mfh,24.39
2024-02-13T02:02:00,mfh,23.70
2024-02-13T02:03:00,mfh,23.78
2024-02-13T02:04:00,mfh,23.74
2024-02-13T02:05:00,mfh,24.98
2024-02-13T02:06:00,mfh,23.94
2024-02-13T02:07:00,mfh,24.08
2024-02-13T02:08:00,mfh,23.87
2024-02-13T02:09:00,mfh,23.75
2024-02-13T02:10:00,mfh,24.34
2024-02-13T02:11:00,mfh,24.41
2024-02-13T02:12:00,mfh,24.45
2024-02-13T02:13:00,mfh,24.39
2024-02-13T02:14:00,mfh,24.51
2024-02-13T02:15:00,mfh,24.77
2024-02-13T02:16:00,mfh,23.79
2024-02-13T02:17:00,mfh,24.04
2024-02-13T02:18:00,mfh,24.13
2024-02-13T02:19:00,mfh,24.09
2024-02-13T02:20:00,mfh,24.64
2024-02-13T02:21:00,mfh,24.63
2024-02-13T02:22:00,mfh,24.72
2024-02-13T02:23:00,mfh,24.62
2024-02-13T02:24:00,mfh,25.25
2024-02-13T02:25:00,mfh,24.70
2024-02-13T02:26:00,mfh,25.84
2024-02-13T02:27:00,mfh,25.98
2024-02-13T02:28:00,mfh,25.92
2024-02-13T02:29:00,mfh,26.09
2024-02-13T02:30:00,mfh,26.81
2024-02-13T02:31:00,mfh,26.80
2024-02-13T02:32:00,mfh,26.61
2024-02-13T02:33:00,mfh,26.64
2024-02-13T02:34:00,mfh,26.67
2024-02-13T02:35:00,mfh,26.70
2024-02-13T02:36:00,mfh,26.16
2024-02-13T02:37:00,mfh,25.97
2024-02-13T02:38:00,mfh,26.45
2024-02-13T02:39:00,mfh,26.77
2024-02-13T02:40:00,mfh,26.67
2024-02-13T02:41:00,mfh,26.83
2024-02-13T02:42:00,mfh,26.76
2024-02-13T02:43:00,mfh,26.40
2024-02-13T02:44:00,mfh,26.27
2024-02-13T02:45:00,mfh,26.78
2024-02-13T02:46:00,mfh,25.70
2024-02-13T02:47:00,mfh,26.50
2024-02-13T02:48:00,mfh,25.68
2024-02-13T02:49:00,mfh,26.32
2024-02-13T02:50:00,mfh,26.32
2024-02-13T02:51:00,mfh,26.43
2024-02-13T02:52:00,mfh,26.51
2024-02-13T02:53:00,mfh,26.85
2024-02-13T02:54:00,mfh,26.36
2024-02-13T02:55:00,mfh,25.82
2024-02-13T02:56:00,mfh,26.21
2024-02-13T02:57:00,mfh,25.86
2024-02-13T02:58:00,mfh,26.48
2024-02-13T02:59:00,mfh,26.43
2024-02-13T03:00:00,mfh,26.72
2024-02-13T03:01:00,mfh,26.97
2024-02-13T03:02:00,mfh,26.36
2024-02-13T03:03:00,mfh,27.45
2024-02-13T03:04:00,mfh,26.45
2024-02-13T03:05:00,mfh,25.65
2024-02-13T03:06:00,mfh,26.49
2024-02-13T03:07:00,mfh,26.03
2024-02-13T03:08:00,mfh,26.61
2024-02-13T03:09:00,mfh,26.31
2024-02-13T03:10:00,mfh,26.46
2024-02-13T03:11:00,mfh,26.56
2024-02-13T03:12:00,mfh,26.50
2024-02-13T03:13:00,mfh,26.47
2024-02-13T03:14:00,mfh,26.88
2024-02-13T03:15:00,mfh,26.06
2024-02-13T03:16:00,mfh,26.00
2024-02-13T03:17:00,mfh,25.89
2024-02-13T03:18:00,mfh,25.82
2024-02-13T03:19:00,mfh,26.43
2024-02-13T03:20:00,mfh,24.69
2024-02-13T03:21:00,mfh,24.57
2024-02-13T03:22:00,mfh,24.56
2024-02-13T03:23:00,mfh,24.55
2024-02-13T03:24:00,mfh,24.50
2024-02-13T03:25:00,mfh,24.42
2024-02-13T03:26:00,mfh,24.15
2024-02-13T03:27:00,mfh,24.76
2024-02-13T03:28:00,mfh,24.65
2024-02-13T03:29:00,mfh,25.87
2024-02-13T03:30:00,mfh,25.25
2024-02-13T03:31:00,mfh,25.42
2024-02-13T03:32:00,mfh,25.34
2024-02-13T03:33:00,mfh,24.57
2024-02-13T03:34:00,mfh,24.50
2024-02-13T03:35:00,mfh,24.41
2024-02-13T03:36:00,mfh,23.79
2024-02-13T03:37:00,mfh,23.77
2024-02-13T03:38:00,mfh,25.36
2024-02-13T03:39:00,mfh,24.68
2024-02-13T03:40:00,mfh,24.32
2024-02-13T03:41:00,mfh,24.29
2024-02-13T03:42:00,mfh,24.38
2024-02-13T03:43:00,mfh,24.44
2024-02-13T03:44:00,mfh,24.85
2024-02-13T03:45:00,mfh,23.73
2024-02-13T03:46:00,mfh,23.94
2024-02-13T03:47:00,mfh,23.97
2024-02-13T03:48:00,mfh,23.90
2024-02-13T03:49:00,mfh,24.98
2024-02-13T03:50:00,mfh,24.75
2024-02-13T03:51:00,mfh,24.74
2024-02-13T03:52:00,mfh,24.50
2024-02-13T03:53:00,mfh,24.63
2024-02-13T03:54:00,mfh,24.77
2024-02-13T03:55:00,mfh,24.00
2024-02-13T03:56:00,mfh,24.00
2024-02-13T03:57:00,mfh,24.32
2024-02-13T03:58:00,mfh,24.42
2024-02-13T03:59:00,mfh,24.50
2024-02-13T04:00:00,mfh,24.57
2024-02-13T04:01:00,mfh,24.69
2024-02-13T04:02:00,mfh,24.69
2024-02-13T04:03:00,mfh,24.77
2024-02-13T04:04:00,mfh,24.75
2024-02-13T04:05:00,mfh,24.73
2024-02-13T04:06:00,mfh,23.93
2024-02-13T04:07:00,mfh,28.00
2024-02-13T04:08:00,mfh,28.01
2024-02-13T04:09:00,mfh,29.17
2024-02-13T04:10:00,mfh,29.31
2024-02-13T04:11:00,mfh,29.28
2024-02-13T04:12:00,mfh,31.20
2024-02-13T04:13:00,mfh,31.34
2024-02-13T04:14:00,mfh,31.29
2024-02-13T04:15:00,mfh,30.55
2024-02-13T04:16:00,mfh,30.65
2024-02-13T04:17:00,mfh,30.61
2024-02-13T04:18:00,mfh,30.42
2024-02-13T04:19:00,mfh,31.03
2024-02-13T04:20:00,mfh,31.11
2024-02-13T04:21:00,mfh,31.78
2024-02-13T04:22:00,mfh,31.30
2024-02-13T04:23:00,mfh,31.66
2024-02-13T04:24:00,mfh,27.30
2024-02-13T04:25:00,mfh,27.08
2024-02-13T04:26:00,mfh,26.74
2024-02-13T04:27:00,mfh,27.64
2024-02-13T04:28:00,mfh,26.84
2024-02-13T04:29:00,mfh,27.21
2024-02-13T04:30:00,mfh,27.62
2024-02-13T04:31:00,mfh,27.41
2024-02-13T04:32:00,mfh,27.11
2024-02-13T04:33:00,mfh,27.01
2024-02-13T04:34:00,mfh,27.13
2024-02-13T04:35:00,mfh,27.10
2024-02-13T04:36:00,mfh,26.37
2024-02-13T04:37:00,mfh,27.66
2024-02-13T04:38:00,mfh,26.89
2024-02-13T04:39:00,mfh,26.84
2024-02-13T04:40:00,mfh,26.85
2024-02-13T04:41:00,mfh,26.93
2024-02-13T04:42:00,mfh,26.99
2024-02-13T04:43:00,mfh,26.94
2024-02-13T04:44:00,mfh,26.89
2024-02-13T04:45:00,mfh,26.90
2024-02-13T04:46:00,mfh,26.48
2024-02-13T04:47:00,mfh,26.39
2024-02-13T04:48:00,mfh,27.08
2024-02-13T04:49:00,mfh,26.85
2024-02-13T04:50:00,mfh,26.83
2024-02-13T04:51:00,mfh,26.90
2024-02-13T04:52:00,mfh,26.98
2024-02-13T04:53:00,mfh,26.98
2024-02-13T04:54:00,mfh,27.16
2024-02-13T04:55:00,mfh,26.46
2024-02-13T04:56:00,mfh,26.63
2024-02-13T04:57:00,mfh,27.17
2024-02-13T04:58:00,mfh,27.25
2024-02-13T04:59:00,mfh,28.53
2024-02-13T05:00:00,mfh,27.56
2024-02-13T05:01:00,mfh,46.83
2024-02-13T05:02:00,mfh,48.92
2024-02-13T05:03:00,mfh,48.78
2024-02-13T05:04:00,mfh,49.21
2024-02-13T05:05:00,mfh,49.17
2024-02-13T05:06:00,mfh,49.30
2024-02-13T05:07:00,mfh,47.68
2024-02-13T05:08:00,mfh,45.69
2024-02-13T05:09:00,mfh,45.59
2024-02-13T05:10:00,mfh,45.43
2024-02-13T05:11:00,mfh,45.75
2024-02-13T05:12:00,mfh,47.52
2024-02-13T05:13:00,mfh,53.67
2024-02-13T05:14:00,mfh,54.52
2024-02-13T05:15:00,mfh,53.55
2024-02-13T05:16:00,mfh,53.69
2024-02-13T05:17:00,mfh,54.65
2024-02-13T05:18:00,mfh,54.28
2024-02-13T05:19:00,mfh,54.68
2024-02-13T05:20:00,mfh,54.96
2024-02-13T05:21:00,mfh,54.53
2024-02-13T05:22:00,mfh,54.94
2024-02-13T05:23:00,mfh,55.23
2024-02-13T05:24:00,mfh,55.14
2024-02-13T05:25:00,mfh,54.91
2024-02-13T05:26:00,mfh,54.59
2024-02-13T05:27:00,mfh,55.57
2024-02-13T05:28:00,mfh,54.66
2024-02-13T05:29:00,mfh,54.32
2024-02-13T05:30:00,mfh,54.19
2024-02-13T05:31:00,mfh,54.39
2024-02-13T05:32:00,mfh,55.09
2024-02-13T05:33:00,mfh,54.14
2024-02-13T05:34:00,mfh,54.15
2024-02-13T05:35:00,mfh,53.52
2024-02-13T05:36:00,mfh,53.32
2024-02-13T05:37:00,mfh,53.55
2024-02-13T05:38:00,mfh,53.97
2024-02-13T05:39:00,mfh,53.84
2024-02-13T05:40:00,mfh,53.90
2024-02-13T05:41:00,mfh,54.30
2024-02-13T05:42:00,mfh,54.23
2024-02-13T05:43:00,mfh,54.38
2024-02-13T05:44:00,mfh,54.20
2024-02-13T05:45:00,mfh,54.18
2024-02-13T05:46:00,mfh,53.57
2024-02-13T05:47:00,mfh,53.91
2024-02-13T05:48:00,mfh,54.57
2024-02-13T05:49:00,mfh,54.92
2024-02-13T05:50:00,mfh,54.70
2024-02-13T05:51:00,mfh,54.89
2024-02-13T05:52:00,mfh,54.74
2024-02-13T05:53:00,mfh,54.74
2024-02-13T05:54:00,mfh,54.21
2024-02-13T05:55:00,mfh,54.74
2024-02-13T05:56:00,mfh,54.32
2024-02-13T05:57:00,mfh,54.92
2024-02-13T05:58:00,mfh,56.01
2024-02-13T05:59:00,mfh,55.13
2024-02-13T06:00:00,mfh,55.15
2024-02-13T06:01:00,mfh,61.54
2024-02-13T06:02:00,mfh,64.58
2024-02-13T06:03:00,mfh,64.25
2024-02-13T06:04:00,mfh,64.56
2024-02-13T06:05:00,mfh,64.45
2024-02-13T06:06:00,mfh,64.68
2024-02-13T06:07:00,mfh,64.23
2024-02-13T06:08:00,mfh,63.28
2024-02-13T06:09:00,mfh,64.47
2024-02-13T06:10:00,mfh,63.39
2024-02-13T06:11:00,mfh,63.88
2024-02-13T06:12:00,mfh,64.21
2024-02-13T06:13:00,mfh,63.62
2024-02-13T06:14:00,mfh,64.58
2024-02-13T06:15:00,mfh,65.45
2024-02-13T06:16:00,mfh,65.35
2024-02-13T06:17:00,mfh,65.52
2024-02-13T06:18:00,mfh,65.71
2024-02-13T06:19:00,mfh,65.52
2024-02-13T06:20:00,mfh,65.22
2024-02-13T06:21:00,mfh,65.31
2024-02-13T06:22:00,mfh,65.63
2024-02-13T06:23:00,mfh,64.81
2024-02-13T06:24:00,mfh,64.73
2024-02-13T06:25:00,mfh,64.33
2024-02-13T06:26:00,mfh,65.51
2024-02-13T06:27:00,mfh,65.15
2024-02-13T06:28:00,mfh,65.26
2024-02-13T06:29:00,mfh,65.36
2024-02-13T06:30:00,mfh,65.33
2024-02-13T06:31:00,mfh,65.23
2024-02-13T06:32:00,mfh,65.12
2024-02-13T06:33:00,mfh,65.44
2024-02-13T06:34:00,mfh,65.53
2024-02-13T06:35:00,mfh,65.44
2024-02-13T06:36:00,mfh,64.91
2024-02-13T06:37:00,mfh,65.30
2024-02-13T06:38:00,mfh,64.87
2024-02-13T06:39:00,mfh,65.06
2024-02-13T06:40:00,mfh,64.25
2024-02-13T06:41:00,mfh,64.65
2024-02-13T06:42:00,mfh,64.73
2024-02-13T06:43:00,mfh,64.51
2024-02-13T06:44:00,mfh,64.49
2024-02-13T06:45:00,mfh,64.74
2024-02-13T06:46:00,mfh,64.32
2024-02-13T06:47:00,mfh,64.53
2024-02-13T06:48:00,mfh,64.25
2024-02-13T06:49:00,mfh,64.27
2024-02-13T06:50:00,mfh,70.20
2024-02-13T06:51:00,mfh,70.43
2024-02-13T06:52:00,mfh,68.23
2024-02-13T06:53:00,mfh,68.26
2024-02-13T06:54:00,mfh,69.01
2024-02-13T06:55:00,mfh,68.40
2024-02-13T06:56:00,mfh,67.54
2024-02-13T06:57:00,mfh,67.71
2024-02-13T06:58:00,mfh,69.09
2024-02-13T06:59:00,mfh,68.40
2024-02-13T07:00:00,mfh,69.22
2024-02-13T07:01:00,mfh,69.51
2024-02-13T07:02:00,mfh,69.73
2024-02-13T07:03:00,mfh,69.36
2024-02-13T07:04:00,mfh,69.21
2024-02-13T07:05:00,mfh,69.14
2024-02-13T07:06:00,mfh,68.49
2024-02-13T07:07:00,mfh,69.32
2024-02-13T07:08:00,mfh,68.90
2024-02-13T07:09:00,mfh,68.80
2024-02-13T07:10:00,mfh,68.81
2024-02-13T07:11:00,mfh,68.96
2024-02-13T07:12:00,mfh,69.62
2024-02-13T07:13:00,mfh,68.88
2024-02-13T07:14:00,mfh,72.55
2024-02-13T07:15:00,mfh,73.08
2024-02-13T07:16:00,mfh,73.57
2024-02-13T07:17:00,mfh,73.41
2024-02-13T07:18:00,mfh,72.76
2024-02-13T07:19:00,mfh,72.77
2024-02-13T07:20:00,mfh,72.49
2024-02-13T07:21:00,mfh,74.15
2024-02-13T07:22:00,mfh,74.35
2024-02-13T07:23:00,mfh,74.53
2024-02-13T07:24:00,mfh,74.54
2024-02-13T07:25:00,mfh,74.44
2024-02-13T07:26:00,mfh,74.71
2024-02-13T07:27:00,mfh,75.42
2024-02-13T07:28:00,mfh,73.56
2024-02-13T07:29:00,mfh,73.78
2024-02-13T07:30:00,mfh,74.39
2024-02-13T07:31:00,mfh,70.28
2024-02-13T07:32:00,mfh,70.51
2024-02-13T07:33:00,mfh,70.89
2024-02-13T07:34:00,mfh,70.33
2024-02-13T07:35:00,mfh,71.41
2024-02-13T07:36:00,mfh,74.06
2024-02-13T07:37:00,mfh,74.64
2024-02-13T07:38:00,mfh,73.83
2024-02-13T07:39:00,mfh,74.53
2024-02-13T07:40:00,mfh,74.57
2024-02-13T07:41:00,mfh,73.96
2024-02-13T07:42:00,mfh,73.45
2024-02-13T07:43:00,mfh,73.61
2024-02-13T07:44:00,mfh,73.08
2024-02-13T07:45:00,mfh,74.58
2024-02-13T07:46:00,mfh,74.87
2024-02-13T07:47:00,mfh,75.43
2024-02-13T07:48:00,mfh,76.43
2024-02-13T07:49:00,mfh,76.86
2024-02-13T07:50:00,mfh,76.90
2024-02-13T07:51:00,mfh,77.07
2024-02-13T07:52:00,mfh,75.92
2024-02-13T07:53:00,mfh,82.88
2024-02-13T07:54:00,mfh,82.85
2024-02-13T07:55:00,mfh,82.91
2024-02-13T07:56:00,mfh,82.44
2024-02-13T07:57:00,mfh,82.50
2024-02-13T07:58:00,mfh,82.34
2024-02-13T07:59:00,mfh,82.08
2024-02-13T08:00:00,mfh,82.22
2024-02-13T08:01:00,mfh,82.00
2024-02-13T08:02:00,mfh,82.30
2024-02-13T08:03:00,mfh,82.24
2024-02-13T08:04:00,mfh,82.70
2024-02-13T08:05:00,mfh,82.76
2024-02-13T08:06:00,mfh,82.72
2024-02-13T08:07:00,mfh,83.68
2024-02-13T08:08:00,mfh,83.42
2024-02-13T08:09:00,mfh,83.83
2024-02-13T08:10:00,mfh,81.13
2024-02-13T08:11:00,mfh,80.57
2024-02-13T08:12:00,mfh,80.66
2024-02-13T08:13:00,mfh,81.13
2024-02-13T08:14:00,mfh,83.21
2024-02-13T08:15:00,mfh,83.17
2024-02-13T08:16:00,mfh,83.28
2024-02-13T08:17:00,mfh,83.45
2024-02-13T08:18:00,mfh,83.41
2024-02-13T08:19:00,mfh,82.99
2024-02-13T08:20:00,mfh,83.28
2024-02-13T08:21:00,mfh,83.19
2024-02-13T08:22:00,mfh,83.37
2024-02-13T08:23:00,mfh,83.40
2024-02-13T08:24:00,mfh,83.58
2024-02-13T08:25:00,mfh,83.52
2024-02-13T08:26:00,mfh,83.31
2024-02-13T08:27:00,mfh,83.22
2024-02-13T08:28:00,mfh,83.45
2024-02-13T08:29:00,mfh,83.13
2024-02-13T08:30:00,mfh,83.06
2024-02-13T08:31:00,mfh,83.03
2024-02-13T08:32:00,mfh,82.78
2024-02-13T08:33:00,mfh,82.60
2024-02-13T08:34:00,mfh,82.95
2024-02-13T08:35:00,mfh,82.47
2024-02-13T08:36:00,mfh,82.34
2024-02-13T08:37:00,mfh,82.41
2024-02-13T08:38:00,mfh,82.71
2024-02-13T08:39:00,mfh,82.57
2024-02-13T08:40:00,mfh,83.06
2024-02-13T08:41:00,mfh,82.74
2024-02-13T08:42:00,mfh,82.88
2024-02-13T08:43:00,mfh,82.79
2024-02-13T08:44:00,mfh,82.69
2024-02-13T08:45:00,mfh,80.24
2024-02-13T08:46:00,mfh,80.37
2024-02-13T08:47:00,mfh,79.62
2024-02-13T08:48:00,mfh,80.05
2024-02-13T08:49:00,mfh,79.79
2024-02-13T08:50:00,mfh,79.88
2024-02-13T08:51:00,mfh,80.21
2024-02-13T08:52:00,mfh,80.35
2024-02-13T08:53:00,mfh,80.57
2024-02-13T08:54:00,mfh,80.36
2024-02-13T08:55:00,mfh,80.41
2024-02-13T08:56:00,mfh,80.84
2024-02-13T08:57:00,mfh,80.85
2024-02-13T08:58:00,mfh,80.61
2024-02-13T08:59:00,mfh,80.55
2024-02-13T09:00:00,mfh,80.73
2024-02-13T09:01:00,mfh,79.77
2024-02-13T09:02:00,mfh,82.63
2024-02-13T09:03:00,mfh,82.44
2024-02-13T09:04:00,mfh,82.91
2024-02-13T09:05:00,mfh,83.08
2024-02-13T09:06:00,mfh,82.92
2024-02-13T09:07:00,mfh,83.08
2024-02-13T09:08:00,mfh,83.19
2024-02-13T09:09:00,mfh,83.38
2024-02-13T09:10:00,mfh,83.59
2024-02-13T09:11:00,mfh,83.09
2024-02-13T09:12:00,mfh,83.38
2024-02-13T09:13:00,mfh,83.15
2024-02-13T09:14:00,mfh,83.51
2024-02-13T09:15:00,mfh,83.18
2024-02-13T09:16:00,mfh,82.74
2024-02-13T09:17:00,mfh,82.14
2024-02-13T09:18:00,mfh,82.23
2024-02-13T09:19:00,mfh,82.77
2024-02-13T09:20:00,mfh,82.75
2024-02-13T09:21:00,mfh,82.75
2024-02-13T09:22:00,mfh,82.82
2024-02-13T09:23:00,mfh,82.50
2024-02-13T09:24:00,mfh,82.52
2024-02-13T09:25:00,mfh,82.36
2024-02-13T09:26:00,mfh,82.81
2024-02-13T09:27:00,mfh,82.59
2024-02-13T09:28:00,mfh,82.80
2024-02-13T09:29:00,mfh,82.15
2024-02-13T09:30:00,mfh,82.20
2024-02-13T09:31:00,mfh,82.31
2024-02-13T09:32:00,mfh,82.45
2024-02-13T09:33:00,mfh,83.02
2024-02-13T09:34:00,mfh,83.00
2024-02-13T09:35:00,mfh,82.97
2024-02-13T09:36:00,mfh,82.91
2024-02-13T09:37:00,mfh,82.91
2024-02-13T09:38:00,mfh,82.63
2024-02-13T09:39:00,mfh,82.62
2024-02-13T09:40:00,mfh,82.64
2024-02-13T09:41:00,mfh,82.59
2024-02-13T09:42:00,mfh,82.99
2024-02-13T09:43:00,mfh,82.93
2024-02-13T09:44:00,mfh,82.98
2024-02-13T09:45:00,mfh,82.66
2024-02-13T09:46:00,mfh,82.72
2024-02-13T09:47:00,mfh,83.15
2024-02-13T09:48:00,mfh,82.83
2024-02-13T09:49:00,mfh,82.86
2024-02-13T09:50:00,mfh,82.91
2024-02-13T09:51:00,mfh,83.00
2024-02-13T09:52:00,mfh,82.94
2024-02-13T09:53:00,mfh,82.90
2024-02-13T09:54:00,mfh,82.95
2024-02-13T09:55:00,mfh,82.84
2024-02-13T09:56:00,mfh,83.40
2024-02-13T09:57:00,mfh,82.76
2024-02-13T09:58:00,mfh,82.71
2024-02-13T09:59:00,mfh,83.26
2024-02-13T10:00:00,mfh,83.36
2024-02-13T10:01:00,mfh,83.37
2024-02-13T10:02:00,mfh,83.33
2024-02-13T10:03:00,mfh,83.41
2024-02-13T10:04:00,mfh,83.36
2024-02-13T10:05:00,mfh,83.17
2024-02-13T10:06:00,mfh,83.30
2024-02-13T10:07:00,mfh,82.75
2024-02-13T10:08:00,mfh,82.67
2024-02-13T10:09:00,mfh,82.72
2024-02-13T10:10:00,mfh,82.77
2024-02-13T10:11:00,mfh,82.78
2024-02-13T10:12:00,mfh,82.45
2024-02-13T10:13:00,mfh,82.49
2024-02-13T10:14:00,mfh,82.28
2024-02-13T10:15:00,mfh,83.01
2024-02-13T10:16:00,mfh,82.96
2024-02-13T10:17:00,mfh,83.09
2024-02-13T10:18:00,mfh,82.81
2024-02-13T10:19:00,mfh,82.89
2024-02-13T10:20:00,mfh,82.91
2024-02-13T10:21:00,mfh,82.93
2024-02-13T10:22:00,mfh,82.77
2024-02-13T10:23:00,mfh,82.77
2024-02-13T10:24:00,mfh,82.51
2024-02-13T10:25:00,mfh,82.53
2024-02-13T10:26:00,mfh,82.55
2024-02-13T10:27:00,mfh,82.80
2024-02-13T10:28:00,mfh,82.86
2024-02-13T10:29:00,mfh,82.71
2024-02-13T10:30:00,mfh,82.84
2024-02-13T10:31:00,mfh,83.34
2024-02-13T10:32:00,mfh,83.01
2024-02-13T10:33:00,mfh,82.88
2024-02-13T10:34:00,mfh,82.91
2024-02-13T10:35:00,mfh,82.81
2024-02-13T10:36:00,mfh,82.80
2024-02-13T10:37:00,mfh,83.11
2024-02-13T10:38:00,mfh,83.19
2024-02-13T10:39:00,mfh,82.26
2024-02-13T10:40:00,mfh,82.32
2024-02-13T10:41:00,mfh,82.29
2024-02-13T10:42:00,mfh,83.05
2024-02-13T10:43:00,mfh,82.78
2024-02-13T10:44:00,mfh,82.71
2024-02-13T10:45:00,mfh,82.67
2024-02-13T10:46:00,mfh,80.08
2024-02-13T10:47:00,mfh,80.13
2024-02-13T10:48:00,mfh,80.02
2024-02-13T10:49:00,mfh,79.93
2024-02-13T10:50:00,mfh,80.11
2024-02-13T10:51:00,mfh,79.60
2024-02-13T10:52:00,mfh,79.66
2024-02-13T10:53:00,mfh,78.31
2024-02-13T10:54:00,mfh,77.27
2024-02-13T10:55:00,mfh,73.13
2024-02-13T10:56:00,mfh,80.88
2024-02-13T10:57:00,mfh,80.70
2024-02-13T10:58:00,mfh,81.68
2024-02-13T10:59:00,mfh,81.35
2024-02-13T11:00:00,mfh,81.66
2024-02-13T11:01:00,mfh,80.94
2024-02-13T11:02:00,mfh,80.62
2024-02-13T11:03:00,mfh,81.78
2024-02-13T11:04:00,mfh,80.76
2024-02-13T11:05:00,mfh,80.49
2024-02-13T11:06:00,mfh,80.08
2024-02-13T11:07:00,mfh,80.47
2024-02-13T11:08:00,mfh,80.06
2024-02-13T11:09:00,mfh,80.84
2024-02-13T11:10:00,mfh,80.86
2024-02-13T11:11:00,mfh,80.82
2024-02-13T11:12:00,mfh,80.79
2024-02-13T11:13:00,mfh,78.27
2024-02-13T11:14:00,mfh,70.09
2024-02-13T11:15:00,mfh,70.18
2024-02-13T11:16:00,mfh,70.34
2024-02-13T11:17:00,mfh,71.36
2024-02-13T11:18:00,mfh,69.93
2024-02-13T11:19:00,mfh,77.17
2024-02-13T11:20:00,mfh,77.54
2024-02-13T11:21:00,mfh,81.08
2024-02-13T11:22:00,mfh,81.13
2024-02-13T11:23:00,mfh,81.35
2024-02-13T11:24:00,mfh,81.35
2024-02-13T11:25:00,mfh,81.45
2024-02-13T11:26:00,mfh,81.31
2024-02-13T11:27:00,mfh,81.24
2024-02-13T11:28:00,mfh,80.76
2024-02-13T11:29:00,mfh,80.59
2024-02-13T11:30:00,mfh,80.37
2024-02-13T11:31:00,mfh,80.83
2024-02-13T11:32:00,mfh,80.28
2024-02-13T11:33:00,mfh,80.52
2024-02-13T11:34:00,mfh,77.46
2024-02-13T11:35:00,mfh,72.95
2024-02-13T11:36:00,mfh,73.26
2024-02-13T11:37:00,mfh,74.06
2024-02-13T11:38:00,mfh,75.20
2024-02-13T11:39:00,mfh,74.06
2024-02-13T11:40:00,mfh,74.27
2024-02-13T11:41:00,mfh,71.36
2024-02-13T11:42:00,mfh,71.98
2024-02-13T11:43:00,mfh,72.11
2024-02-13T11:44:00,mfh,72.55
2024-02-13T11:45:00,mfh,72.16
2024-02-13T11:46:00,mfh,71.91
2024-02-13T11:47:00,mfh,75.19
2024-02-13T11:48:00,mfh,76.23
2024-02-13T11:49:00,mfh,75.60
2024-02-13T11:50:00,mfh,76.00
2024-02-13T11:51:00,mfh,76.35
2024-02-13T11:52:00,mfh,76.33
2024-02-13T11:53:00,mfh,75.98
2024-02-13T11:54:00,mfh,76.08
2024-02-13T11:55:00,mfh,75.96
2024-02-13T11:56:00,mfh,75.47
2024-02-13T11:57:00,mfh,75.71
2024-02-13T11:58:00,mfh,75.91
2024-02-13T11:59:00,mfh,75.51
2024-02-13T12:00:00,mfh,76.06
2024-02-13T12:01:00,mfh,75.34
2024-02-13T12:02:00,mfh,74.70
2024-02-13T12:03:00,mfh,74.72
2024-02-13T12:04:00,mfh,74.49
2024-02-13T12:05:00,mfh,75.79
2024-02-13T12:06:00,mfh,75.82
2024-02-13T12:07:00,mfh,75.62
2024-02-13T12:08:00,mfh,75.94
2024-02-13T12:09:00,mfh,76.04
2024-02-13T12:10:00,mfh,76.24
2024-02-13T12:11:00,mfh,76.08
2024-02-13T12:12:00,mfh,75.20
2024-02-13T12:13:00,mfh,75.78
2024-02-13T12:14:00,mfh,74.97
2024-02-13T12:15:00,mfh,74.44
2024-02-13T12:16:00,mfh,74.26
2024-02-13T12:17:00,mfh,73.96
2024-02-13T12:18:00,mfh,73.76
2024-02-13T12:19:00,mfh,73.24
2024-02-13T12:20:00,mfh,73.55
2024-02-13T12:21:00,mfh,73.51
2024-02-13T12:22:00,mfh,74.13
2024-02-13T12:23:00,mfh,73.73
2024-02-13T12:24:00,mfh,69.59
2024-02-13T12:25:00,mfh,69.12
2024-02-13T12:26:00,mfh,69.83
2024-02-13T12:27:00,mfh,69.46
2024-02-13T12:28:00,mfh,69.46
2024-02-13T12:29:00,mfh,69.44
2024-02-13T12:30:00,mfh,69.03
2024-02-13T12:31:00,mfh,69.08
2024-02-13T12:32:00,mfh,68.93
2024-02-13T12:33:00,mfh,69.82
2024-02-13T12:34:00,mfh,70.13
2024-02-13T12:35:00,mfh,69.91
2024-02-13T12:36:00,mfh,71.51
2024-02-13T12:37:00,mfh,71.19
2024-02-13T12:38:00,mfh,71.28
2024-02-13T12:39:00,mfh,71.06
2024-02-13T12:40:00,mfh,70.86
2024-02-13T12:41:00,mfh,70.90
2024-02-13T12:42:00,mfh,70.84
2024-02-13T12:43:00,mfh,70.32
2024-02-13T12:44:00,mfh,74.34
2024-02-13T12:45:00,mfh,83.68
2024-02-13T12:46:00,mfh,83.69
2024-02-13T12:47:00,mfh,83.85
2024-02-13T12:48:00,mfh,83.88
2024-02-13T12:49:00,mfh,84.46
2024-02-13T12:50:00,mfh,83.51
2024-02-13T12:51:00,mfh,83.75
2024-02-13T12:52:00,mfh,83.78
2024-02-13T12:53:00,mfh,83.74
2024-02-13T12:54:00,mfh,83.70
2024-02-13T12:55:00,mfh,83.72
2024-02-13T12:56:00,mfh,83.40
2024-02-13T12:57:00,mfh,79.45
2024-02-13T12:58:00,mfh,79.64
2024-02-13T12:59:00,mfh,79.24
2024-02-13T13:00:00,mfh,79.30
2024-02-13T13:01:00,mfh,76.09
2024-02-13T13:02:00,mfh,76.65
2024-02-13T13:03:00,mfh,73.62
2024-02-13T13:04:00,mfh,73.72
2024-02-13T13:05:00,mfh,74.04
2024-02-13T13:06:00,mfh,69.15
2024-02-13T13:07:00,mfh,70.47
2024-02-13T13:08:00,mfh,71.53
2024-02-13T13:09:00,mfh,70.34
2024-02-13T13:10:00,mfh,75.19
2024-02-13T13:11:00,mfh,74.41
2024-02-13T13:12:00,mfh,74.70
2024-02-13T13:13:00,mfh,74.67
2024-02-13T13:14:00,mfh,73.18
2024-02-13T13:15:00,mfh,72.56
2024-02-13T13:16:00,mfh,73.65
2024-02-13T13:17:00,mfh,72.64
2024-02-13T13:18:00,mfh,76.61